COSMOS 2251 DEB, 36048

Orbit data source: Space-Track

COSMOS 2251 DEB, 36048 is space debris in LEO originally from a launch on Wed, 16 Jun 1993 UTC launched from the Plesetsk Missile And Space Complex (PKMTR). The debris from Iridium 33, an American commercial communications satellite, has been tracked extensively since its accidental collision with the defunct Russian satellite Cosmos 2251 in 2009. This event, occurring at high speed in low Earth orbit (LEO), generated thousands of pieces of space debris, significantly increasing the risk of further collisions. The Iridium 33 debris cloud has impacted space traffic management and orbital debris mitigation strategies, making it a subject of ongoing study in space situational awareness.

Loading next visibility...
Identifier
36048, 1993-036AXK
Orbit
LEO
Country
Flag of CISCIS
Related business
Manufacturer
Unknown
Mission
Spacecraft
Bus & Motor
Unknown
Mass
Unknown
Launch date (UTC)
1993-06-16 (33 years ago)
Launch vehicle
Unknown
Launch site
Plesetsk Missile And Space Complex (PKMTR)
Object type
Payload
Rocket body
Debris
Shape & HBR
Unknown shape, 0.1 m
Radar Cross Section
Small (<0.1 m²)

Expand to show TLE details & history
Last TLE update: 1 day ago

TLE from 1 day ago
0 COSMOS 2251 DEB
1 36048U 93036AXK 26033.70764244  .00000819  00000-0  27850-3 0  9993
2 36048  74.0550 203.7068 0027301 245.3117 127.4462 14.37952435862494
Epoch: 2026-02-02T16:59Z
TLE epoch observation values (Epoch: 2026-02-02T16:59:00.306Z)
Latitude
12.46304°
Longitude
179.6576°
Altitude
779.021 km
Speed
7.459 km/s
True Right ascension
13h 49m 13s
True Declination
12° 23' 28"
Sunlit
Object was in daylight at epoch
Visualization orbit readout
Latitude
Unknown
Longitude
Unknown
Altitude
Unknown
Speed
Unknown
Apparent Right ascension
Unknown
Apparent Declination
Unknown
Sunlit
N/A
Visualization observer readout
Local Sidereal Time
03:12:16
Azimuth
Unknown
Elevation
Unknown
Doppler factor
Unknown
Orbital elements
Apogee altitude
782.388 km
Perigee altitude
743.396 km
Semi-major axis
7,141.029 km
Eccentricity
0.00273
Inclination
74.055°
RAAN
203.7068°
Arg. of periapsis
245.3117°
True anomaly
127.69406°
Mean anomaly
127.4462°
Eccentric anomaly
127.57018°
Mean motion
3.59668 °/min
Orbital period
100.09 mins
BSTAR
0.0002785
Loading maneuver chart data...
Computing Atmospheric mass density...

Documentation

Showing up to 5 results
|